EW9273 Weather Reports


Display with metric or nautical units.
time (UTC)temp
F
wind
direction
speed
MPH
gust
MPH
rain 1hr
in
rain 24hr
in
rain mn
in
humidity
%
barometer
mb
20260509231045 90 157 1.0 7.0 0.00 0.01 0.01 49 1005.2
20260509230545 90 71 2.0 6.0 0.00 0.01 0.01 49 1005.2
20260509230048 90 165 2.0 6.0 0.00 0.01 0.01 49 1005.2
20260509225546 90 132 2.0 9.0 0.00 0.01 0.01 49 1005.2
20260509225043 90 118 3.0 9.0 0.00 0.01 0.01 49 1005.2
20260509224543 91 148 4.0 10.0 0.00 0.01 0.01 49 1005.3
20260509224044 90 159 3.0 10.0 0.00 0.01 0.01 49 1005.2
20260509223544 91 156 4.0 8.0 0.00 0.01 0.01 49 1005.2
20260509223044 91 222 3.0 8.0 0.00 0.01 0.01 49 1005.1
20260509222545 90 204 1.0 9.0 0.00 0.01 0.01 49 1005.0
20260509222043 90 167 4.0 9.0 0.00 0.01 0.01 49 1005.0
20260509221543 91 160 4.0 10.0 0.00 0.01 0.01 49 1005.1
20260509221042 91 249 3.0 9.0 0.00 0.01 0.01 48 1005.0
20260509220542 91 236 1.0 8.0 0.00 0.01 0.01 48 1005.0
20260509220043 92 196 4.0 10.0 0.00 0.01 0.01 47 1005.1
20260509215542 92 237 3.0 11.0 0.00 0.01 0.01 48 1005.2
20260509215042 91 240 2.0 6.0 0.00 0.01 0.01 49 1005.2
20260509214542 91 142 1.0 8.0 0.00 0.01 0.01 49 1005.2
20260509214040 91 132 3.0 8.0 0.00 0.01 0.01 49 1005.3
20260509213541 91 181 2.0 6.0 0.00 0.01 0.01 50 1005.2
20260509213043 90 102 2.0 8.0 0.00 0.01 0.01 51 1005.4
20260509212539 91 186 3.0 9.0 0.00 0.01 0.01 49 1005.4
20260509212039 91 148 1.0 9.0 0.00 0.01 0.01 48 1005.4
20260509211539 91 88 3.0 10.0 0.00 0.01 0.01 49 1005.5
20260509211038 91 165 4.0 10.0 0.00 0.01 0.01 49 1005.5
20260509210540 92 259 3.0 8.0 0.00 0.01 0.01 48 1005.6
20260509210044 92 255 2.0 9.0 0.00 0.01 0.01 48 1005.7
20260509205537 91 277 4.0 11.0 0.00 0.01 0.01 49 1005.7
20260509205036 91 213 5.0 11.0 0.00 0.01 0.01 49 1005.7
20260509204535 91 182 3.0 8.0 0.00 0.01 0.01 48 1005.8
20260509204034 90 275 3.0 9.0 0.00 0.01 0.01 49 1005.9
20260509203533 91 148 3.0 10.0 0.00 0.01 0.01 49 1006.1
20260509203034 90 184 3.0 10.0 0.00 0.01 0.01 48 1006.1
20260509202537 92 208 3.0 8.0 0.00 0.01 0.01 47 1006.2
20260509202035 91 211 3.0 10.0 0.00 0.01 0.01 45 1006.3
20260509201533 90 226 3.0 10.0 0.00 0.01 0.01 47 1006.3
20260509201029 90 230 4.0 9.0 0.00 0.01 0.01 49 1006.4
20260509200532 89 207 1.0 8.0 0.00 0.01 0.01 51 1006.5
20260509200028 90 153 3.0 8.0 0.00 0.01 0.01 52 1006.6
20260509195529 91 178 2.0 11.0 0.00 0.01 0.01 49 1006.7
20260509195025 91 233 5.0 11.0 0.00 0.01 0.01 48 1006.8
20260509194537 92 264 3.0 7.0 0.00 0.01 0.01 48 1006.9
20260509194026 90 192 1.0 9.0 0.00 0.01 0.01 53 1007.0
20260509193527 90 144 4.0 9.0 0.00 0.01 0.01 52 1007.2
20260509193025 91 225 5.0 10.0 0.00 0.01 0.01 51 1007.3
20260509192524 89 154 1.0 10.0 0.00 0.01 0.01 54 1007.3
20260509192026 88 318 4.0 9.0 0.00 0.01 0.01 55 1007.4
20260509191525 88 99 2.0 9.0 0.00 0.01 0.01 56 1007.4
20260509191025 87 148 3.0 6.0 0.00 0.01 0.01 55 1007.4
20260509190525 88 215 3.0 9.0 0.00 0.01 0.01 54 1007.5
20260509190026 89 274 4.0 9.0 0.00 0.01 0.01 54 1007.5
20260509185524 89 305 1.0 11.0 0.00 0.01 0.01 54 1007.5
20260509185022 90 262 4.0 12.0 0.00 0.01 0.01 53 1007.5
20260509184527 89 259 6.0 12.0 0.00 0.01 0.01 54 1007.6
20260509184020 89 302 1.0 9.0 0.00 0.01 0.01 56 1007.6
20260509183520 88 154 2.0 9.0 0.00 0.01 0.01 55 1007.7
20260509183020 88 219 3.0 9.0 0.00 0.01 0.01 55 1007.8
20260509182518 88 258 4.0 9.0 0.00 0.01 0.01 57 1007.9
20260509182018 86 130 3.0 10.0 0.00 0.01 0.01 58 1007.9
20260509181518 87 235 5.0 10.0 0.00 0.01 0.01 58 1007.9
20260509181018 86 265 7.0 10.0 0.00 0.01 0.01 61 1008.0
20260509180518 87 155 2.0 7.0 0.00 0.01 0.01 60 1008.1
20260509180016 85 153 3.0 8.0 0.00 0.01 0.01 62 1008.2
20260509175515 85 150 1.0 9.0 0.00 0.01 0.01 61 1008.2
20260509175015 85 263 3.0 9.0 0.00 0.01 0.01 62 1008.1
20260509174515 86 144 5.0 10.0 0.00 0.01 0.01 61 1008.3
20260509174014 86 233 1.0 7.0 0.00 0.01 0.01 65 1008.3
20260509173512 85 281 2.0 11.0 0.00 0.01 0.01 64 1008.4
20260509173015 85 229 4.0 11.0 0.00 0.01 0.01 65 1008.5
20260509172513 84 214 4.0 10.0 0.00 0.01 0.01 67 1008.4
20260509172010 84 220 1.0 10.0 0.00 0.01 0.01 68 1008.5
20260509171509 84 273 4.0 9.0 0.00 0.01 0.01 69 1008.5
20260509171008 83 242 3.0 11.0 0.00 0.01 0.01 69 1008.6
20260509170507 83 242 3.0 11.0 0.00 0.01 0.01 70 1008.7
20260509170007 84 243 5.0 10.0 0.00 0.01 0.01 70 1008.7
20260509165504 83 252 3.0 9.0 0.00 0.01 0.01 72 1008.7
20260509165007 82 327 4.0 9.0 0.00 0.01 0.01 72 1008.7
20260509164502 82 296 5.0 9.0 0.00 0.01 0.01 72 1008.7
20260509164001 82 220 5.0 12.0 0.00 0.01 0.01 72 1008.7
20260509163559 81 185 4.0 12.0 0.00 0.01 0.01 73 1008.6
20260509163104 81 235 5.0 12.0 0.00 0.01 0.01 72 1008.5
20260509162558 81 251 5.0 12.0 0.00 0.01 0.01 71 1008.4
20260509162057 81 243 6.0 12.0 0.00 0.01 0.01 71 1008.4
20260509161603 80 258 2.0 9.0 0.00 0.01 0.01 74 1008.3
20260509161053 80 259 5.0 9.0 0.00 0.01 0.01 74 1008.5
20260509160552 79 227 4.0 11.0 0.00 0.01 0.01 77 1008.4
20260509160051 79 207 4.0 12.0 0.00 0.01 0.01 78 1008.5
20260509155549 79 222 3.0 12.0 0.00 0.01 0.01 79 1008.6
20260509155048 78 225 4.0 8.0 0.00 0.01 0.01 80 1008.6
20260509154550 78 223 3.0 9.0 0.00 0.01 0.01 84 1008.9
20260509154045 77 255 4.0 9.0 0.00 0.01 0.01 87 1008.9
20260509153543 75 267 2.0 8.0 0.00 0.01 0.01 91 1008.8
20260509153055 74 261 3.0 8.0 0.00 0.01 0.01 94 1008.9
20260509152542 72 268 4.0 6.0 0.00 0.01 0.01 95 1009.0
20260509152041 72 262 2.0 8.0 0.00 0.01 0.01 96 1009.1
20260509151541 72 261 4.0 8.0 0.00 0.01 0.01 95 1009.3
20260509151039 72 220 0.0 3.0 0.00 0.01 0.01 96 1009.4
20260509150539 72 241 0.0 3.0 0.00 0.01 0.01 95 1009.5
20260509150039 73 121 0.0 5.0 0.00 0.01 0.01 96 1009.3
20260509145540 73 138 2.0 7.0 0.00 0.01 0.01 96 1009.2
20260509145037 73 149 3.0 7.0 0.00 0.01 0.01 95 1009.3
20260509144541 73 163 1.0 7.0 0.00 0.01 0.01 96 1009.3
20260509144034 73 163 3.0 7.0 0.00 0.01 0.01 95 1009.4
20260509143537 73 152 0.0 3.0 0.00 0.01 0.01 95 1009.4
20260509143035 73 152 0.0 3.0 0.00 0.01 0.01 95 1009.5
20260509142533 73 145 1.0 3.0 0.00 0.01 0.01 95 1009.4
20260509142033 73 121 0.0 2.0 0.00 0.01 0.01 95 1009.4
20260509141539 73 225 0.0 3.0 0.00 0.01 0.01 95 1009.6
20260509141032 72 159 1.0 5.0 0.00 0.01 0.01 95 1009.4
20260509140532 72 156 0.0 5.0 0.00 0.01 0.01 95 1009.3
20260509140036 72 164 0.0 2.0 0.00 0.01 0.01 95 1009.4
20260509135530 72 164 0.0 3.0 0.00 0.01 0.01 95 1009.2
20260509135030 72 164 0.0 3.0 0.00 0.01 0.01 95 1008.9
20260509134530 72 342 0.0 0.0 0.00 0.01 0.01 95 1008.6
20260509134029 72 342 0.0 2.0 0.00 0.01 0.01 95 1008.0
20260509133529 72 342 0.0 2.0 0.00 0.01 0.01 95 1007.8
20260509133029 72 342 0.0 2.0 0.00 0.01 0.01 94 1007.7
20260509132531 72 277 0.0 3.0 0.01 0.01 0.01 94 1007.8
20260509132028 72 198 0.0 4.0 0.01 0.01 0.01 94 1007.8
20260509131528 72 88 0.0 4.0 0.01 0.01 0.01 94 1008.0
20260509131031 72 51 1.0 5.0 0.01 0.01 0.01 94 1008.4
20260509130532 72 62 1.0 6.0 0.01 0.01 0.01 94 1008.5
20260509130028 72 64 1.0 5.0 0.01 0.01 0.01 94 1008.6
20260509125529 72 68 1.0 4.0 0.01 0.01 0.01 94 1008.8
20260509125026 72 78 1.0 3.0 0.01 0.01 0.01 94 1009.1
20260509124526 72 79 1.0 3.0 0.01 0.01 0.01 94 1009.1
20260509124026 72 355 0.0 3.0 0.01 0.01 0.01 94 1008.9
20260509123525 72 57 1.0 6.0 0.01 0.01 0.01 93 1008.9
20260509123024 72 343 2.0 6.0 0.01 0.01 0.01 93 1008.9
20260509122522 72 30 2.0 4.0 0.00 0.00 0.00 93 1008.9
20260509122020 72 71 1.0 4.0 0.00 0.00 0.00 93 1009.0
20260509121520 72 55 1.0 4.0 0.00 0.00 0.00 93 1009.0
20260509121018 72 342 2.0 10.0 0.00 0.00 0.00 93 1009.1
20260509120516 72 22 2.0 10.0 0.00 0.00 0.00 93 1009.0
20260509120015 72 22 1.0 9.0 0.00 0.00 0.00 93 1009.0
20260509115513 72 340 3.0 9.0 0.00 0.00 0.00 93 1008.8
20260509115012 72 5 1.0 4.0 0.00 0.00 0.00 93 1008.7
20260509114510 72 360 1.0 4.0 0.00 0.00 0.00 93 1008.6
20260509114009 72 336 1.0 5.0 0.00 0.00 0.00 92 1008.5
20260509113507 72 327 2.0 5.0 0.00 0.00 0.00 92 1008.2
20260509113006 72 43 0.0 3.0 0.00 0.00 0.00 92 1008.0
20260509112504 72 43 1.0 4.0 0.00 0.00 0.00 92 1007.9
20260509112003 72 23 1.0 4.0 0.00 0.00 0.00 92 1007.9
20260509111504 72 336 0.0 3.0 0.00 0.00 0.00 92 1008.0
20260509111101 72 336 0.0 3.0 0.00 0.00 0.00 92 1007.8
20260509110559 72 336 0.0 4.0 0.00 0.00 0.00 92 1007.8
20260509110502 72 336 1.0 4.0 0.00 0.00 0.00 92 1007.9
20260509110058 72 45 0.0 4.0 0.00 0.00 0.00 92 1007.8
20260509105556 72 57 2.0 4.0 0.00 0.00 0.00 91 1007.8
20260509105054 72 40 0.0 3.0 0.00 0.00 0.00 91 1007.9
20260509104557 72 68 0.0 4.0 0.00 0.00 0.00 91 1008.0
20260509104051 72 68 2.0 4.0 0.00 0.00 0.00 91 1007.9
20260509103550 72 66 0.0 3.0 0.00 0.00 0.00 91 1008.1
20260509103058 72 66 1.0 5.0 0.00 0.00 0.00 91 1008.1
20260509102547 72 66 1.0 5.0 0.00 0.00 0.00 91 1008.1
20260509102046 72 34 1.0 4.0 0.00 0.00 0.00 91 1008.1
20260509101545 72 36 1.0 4.0 0.00 0.00 0.00 91 1008.4
20260509101043 72 52 0.0 4.0 0.00 0.00 0.00 90 1008.2
20260509100544 72 61 2.0 4.0 0.00 0.00 0.00 90 1008.2
20260509100043 72 26 1.0 4.0 0.00 0.00 0.00 90 1008.2
20260509095544 72 57 0.0 6.0 0.00 0.00 0.00 90 1007.9
20260509095042 72 39 2.0 6.0 0.00 0.00 0.00 90 1007.6
20260509094553 72 74 0.0 3.0 0.00 0.00 0.00 90 1007.5
20260509094042 72 69 1.0 3.0 0.00 0.00 0.00 90 1007.4
20260509093541 72 5 0.0 3.0 0.00 0.00 0.00 90 1007.3
20260509093041 72 59 1.0 3.0 0.00 0.00 0.00 89 1007.2
20260509092544 72 59 0.0 3.0 0.00 0.00 0.00 89 1007.0
20260509092043 72 28 1.0 3.0 0.00 0.00 0.00 89 1007.0
20260509091548 72 34 0.0 2.0 0.00 0.00 0.00 89 1006.9
20260509091037 72 34 0.0 3.0 0.00 0.00 0.00 89 1006.9
20260509090536 72 339 0.0 2.0 0.00 0.00 0.00 89 1007.0
20260509090039 72 339 0.0 2.0 0.00 0.00 0.00 89 1007.2
20260509085536 72 339 0.0 0.0 0.00 0.00 0.00 89 1007.1
20260509085035 72 339 0.0 3.0 0.00 0.00 0.00 89 1007.1
20260509084533 72 339 0.0 3.0 0.00 0.00 0.00 89 1007.1
20260509084030 72 339 0.0 1.0 0.00 0.00 0.00 88 1006.8
20260509083530 72 339 0.0 3.0 0.00 0.00 0.00 88 1006.9
20260509083030 72 339 1.0 3.0 0.00 0.00 0.00 88 1007.1
20260509082533 72 67 0.0 3.0 0.00 0.00 0.00 88 1006.9
20260509082029 72 77 0.0 4.0 0.00 0.00 0.00 88 1006.8
20260509081529 73 82 2.0 4.0 0.00 0.00 0.00 88 1007.3
20260509081028 72 20 0.0 3.0 0.00 0.00 0.00 88 1007.6
20260509080531 73 42 0.0 6.0 0.00 0.00 0.00 88 1007.3
20260509080026 73 157 2.0 8.0 0.00 0.00 0.00 88 1007.2
20260509075524 73 146 3.0 8.0 0.00 0.00 0.00 88 1007.4
20260509075024 73 154 1.0 7.0 0.00 0.00 0.00 87 1007.5
20260509074523 73 167 1.0 7.0 0.00 0.00 0.00 87 1007.7
20260509074025 73 215 0.0 4.0 0.00 0.00 0.00 87 1007.6
20260509073521 73 174 0.0 5.0 0.00 0.00 0.00 87 1007.1
20260509073033 73 153 0.0 4.0 0.00 0.00 0.00 87 1007.0
20260509072519 73 158 1.0 6.0 0.00 0.00 0.00 87 1007.2
20260509072017 73 163 1.0 6.0 0.00 0.00 0.00 87 1007.7
20260509071516 73 138 2.0 7.0 0.00 0.00 0.00 87 1007.7
20260509071016 73 161 4.0 9.0 0.00 0.00 0.00 86 1007.7
20260509070516 73 174 1.0 6.0 0.00 0.00 0.00 86 1007.6
20260509070014 73 157 1.0 5.0 0.00 0.00 0.00 86 1007.6
20260509065511 73 132 0.0 5.0 0.00 0.00 0.00 86 1007.7
20260509065010 73 185 0.0 3.0 0.00 0.00 0.00 86 1007.9
20260509064512 73 185 0.0 2.0 0.00 0.00 0.00 86 1007.9
20260509064011 73 185 0.0 2.0 0.00 0.00 0.00 86 1008.0
20260509063505 73 185 0.0 2.0 0.00 0.00 0.00 85 1008.0
20260509063008 73 185 0.0 1.0 0.00 0.00 0.00 85 1008.0
20260509062503 73 185 0.0 1.0 0.00 0.00 0.00 85 1008.1
20260509062004 73 185 0.0 3.0 0.00 0.00 0.00 85 1008.0
20260509061601 73 185 0.0 3.0 0.00 0.00 0.00 85 1008.0
20260509061058 73 185 0.0 2.0 0.00 0.00 0.00 85 1008.0
20260509060558 73 185 0.0 2.0 0.00 0.00 0.00 85 1008.0
20260509060112 73 185 0.0 2.0 0.00 0.00 0.00 85 1007.9
20260509055555 73 185 0.0 2.0 0.00 0.00 0.00 85 1007.9
20260509055053 73 185 0.0 3.0 0.00 0.00 0.00 85 1008.0
20260509054552 73 185 0.0 2.0 0.00 0.00 0.00 85 1008.2
20260509054049 73 185 0.0 3.0 0.00 0.00 0.00 85 1008.2
20260509053548 73 185 0.0 3.0 0.00 0.00 0.00 85 1008.3
20260509053057 73 185 0.0 3.0 0.00 0.00 0.00 85 1008.4
20260509052545 73 178 0.0 2.0 0.00 0.00 0.00 85 1008.6
20260509052044 73 178 0.0 4.0 0.00 0.00 0.00 85 1008.7
20260509051547 73 178 0.0 4.0 0.00 0.00 0.00 85 1008.9
20260509051043 73 26 0.0 3.0 0.00 0.00 0.00 85 1008.8
20260509050540 73 184 0.0 4.0 0.00 0.00 0.00 85 1008.8
20260509050039 73 184 0.0 4.0 0.00 0.00 0.00 85 1008.5
20260509045539 73 85 0.0 3.0 0.00 0.00 0.00 85 1008.2
20260509045037 73 92 0.0 2.0 0.00 0.00 0.00 85 1008.3
20260509044537 73 72 0.0 0.0 0.00 0.00 0.00 85 1008.5
20260509044037 73 72 0.0 3.0 0.00 0.00 0.00 85 1008.6
20260509043536 73 72 0.0 3.0 0.00 0.00 0.00 85 1008.6
20260509043044 73 72 0.0 3.0 0.00 0.00 0.00 85 1008.4
20260509042536 73 72 0.0 3.0 0.00 0.00 0.00 84 1008.2
20260509042036 73 72 1.0 4.0 0.00 0.00 0.00 84 1008.2
20260509041536 73 72 2.0 4.0 0.00 0.00 0.00 84 1008.1
20260509041036 72 72 1.0 8.0 0.00 0.00 0.00 84 1008.0
20260509040535 72 91 1.0 8.0 0.00 0.00 0.00 84 1008.0
20260509040045 72 84 2.0 5.0 0.00 0.00 0.00 83 1008.0
20260509035535 72 38 0.0 3.0 0.00 0.00 0.00 83 1007.8
20260509035039 72 71 1.0 4.0 0.00 0.00 0.00 83 1007.6
20260509034534 73 71 1.0 6.0 0.00 0.00 0.00 83 1007.6
20260509034034 73 97 2.0 6.0 0.00 0.00 0.00 83 1007.5
20260509033534 73 71 2.0 5.0 0.00 0.00 0.00 82 1007.3
20260509033042 73 78 1.0 3.0 0.00 0.00 0.00 82 1007.5
20260509032534 73 78 1.0 4.0 0.00 0.00 0.00 82 1007.8
20260509032036 73 79 2.0 4.0 0.00 0.00 0.00 82 1007.8
20260509031533 73 79 1.0 4.0 0.00 0.00 0.00 82 1007.7
20260509031033 73 65 1.0 3.0 0.00 0.00 0.00 82 1007.7
20260509030533 74 65 1.0 3.0 0.00 0.00 0.00 81 1007.6
20260509030033 74 65 0.0 2.0 0.00 0.00 0.00 81 1007.6
20260509025533 74 65 0.0 4.0 0.00 0.00 0.00 81 1007.7
20260509025033 74 65 1.0 4.0 0.00 0.00 0.00 81 1007.5
20260509024535 74 65 2.0 4.0 0.00 0.00 0.00 81 1007.4
20260509024033 74 80 1.0 4.0 0.00 0.00 0.00 81 1007.3
20260509023533 74 80 1.0 4.0 0.00 0.00 0.00 81 1007.3
20260509023032 74 57 1.0 3.0 0.00 0.00 0.00 81 1007.3
20260509022532 74 54 0.0 3.0 0.00 0.00 0.00 81 1007.3
20260509022032 74 54 0.0 4.0 0.00 0.00 0.00 80 1007.2
20260509021531 74 71 2.0 4.0 0.00 0.00 0.00 80 1007.0
20260509021033 74 63 2.0 4.0 0.00 0.00 0.00 80 1006.9
20260509020533 74 74 1.0 4.0 0.00 0.00 0.00 80 1006.8
20260509020031 74 82 2.0 4.0 0.00 0.00 0.00 80 1006.7
20260509015531 74 78 1.0 3.0 0.00 0.00 0.00 80 1006.7
20260509015031 74 78 1.0 4.0 0.00 0.00 0.00 80 1006.6
20260509014531 74 86 2.0 4.0 0.00 0.00 0.00 80 1006.6
20260509014030 74 79 2.0 3.0 0.00 0.00 0.00 80 1006.8
20260509013630 74 56 0.0 3.0 0.00 0.00 0.00 79 1006.7
20260509013031 74 87 1.0 3.0 0.00 0.00 0.00 79 1006.6
20260509012528 74 87 1.0 4.0 0.00 0.00 0.00 79 1006.5
20260509012028 75 38 2.0 6.0 0.00 0.00 0.00 79 1006.5
20260509011528 75 85 2.0 6.0 0.00 0.00 0.00 78 1006.3
20260509011028 75 79 2.0 6.0 0.00 0.00 0.00 78 1006.4
20260509010528 75 54 2.0 6.0 0.00 0.00 0.00 78 1006.4
20260509010034 75 74 2.0 5.0 0.00 0.00 0.00 78 1006.3
20260509005528 75 86 1.0 5.0 0.00 0.00 0.00 78 1006.3
20260509005027 76 38 2.0 5.0 0.00 0.00 0.00 77 1006.3
20260509004527 76 66 2.0 5.0 0.00 0.00 0.00 77 1006.2
20260509004026 76 39 2.0 6.0 0.00 0.00 0.00 77 1006.2
20260509003526 76 101 2.0 8.0 0.00 0.00 0.00 77 1006.3
20260509003026 76 100 3.0 8.0 0.00 0.00 0.00 77 1006.3
20260509002525 76 96 2.0 5.0 0.00 0.00 0.00 77 1006.3
20260509002027 76 78 1.0 3.0 0.00 0.00 0.00 76 1006.3
20260509001525 76 79 1.0 4.0 0.00 0.00 0.00 76 1006.4
20260509001026 76 57 2.0 6.0 0.00 0.00 0.00 76 1006.5
20260509000525 76 76 1.0 6.0 0.00 0.00 0.00 76 1006.4
20260509000025 77 74 1.0 6.0 0.00 0.00 0.00 76 1006.3
20260508235525 77 94 2.0 5.0 0.00 0.00 0.00 76 1006.3
20260508235024 76 82 1.0 5.0 0.00 0.00 0.00 76 1006.3
20260508234524 77 26 1.0 6.0 0.00 0.00 0.00 75 1006.2
20260508234023 77 57 2.0 6.0 0.00 0.00 0.00 75 1006.3
20260508233525 77 42 3.0 6.0 0.00 0.00 0.00 74 1006.3
20260508233026 77 80 2.0 6.0 0.00 0.00 0.00 75 1006.3
20260508232522 77 117 2.0 5.0 0.00 0.00 0.00 75 1006.3
20260508232022 77 88 1.0 6.0 0.00 0.00 0.00 75 1006.3
20260508231522 77 81 2.0 6.0 0.00 0.00 0.00 75 1006.3